RH
65 68 70 72 71 71 75 71 71 72 70 77 89 90 92 91 81 72 79 84 83 98 92 80 77 82 83 86 87 83 80 80 90 87 87 91 88 88 89 85 86 86 91 92 92 93 84 76 77 74 74 88 86 86
67 71 73 73 70 71 75 72 74 71 76 84 88 87 88 90 80 64 77 76 74 88 87 74 71 72 84 84 89 90 81 86 90 91 93 93 87 90 88 88 85 84 76 82 81 81 81 90 87 87 84 86 88 86
68 72 74 73 69 74 75 75 72 69 77 81 88 87 84 84 72 64 78 84 82 87 87 75 79 71 71 79 78 84 91 85 88 89 93 91 82 86 91 90 88 85 83 85 80 84 87 90 90 87 86 86 87 87
71 73 75 74 75 78 76 74 70 71 75 88 86 85 86 73 66 64 74 89 81 83 84 80 70 83 77 79 75 80 82 84 87 91 92 92 83 90 90 85 87 84 81 84 84 86 91 88 88 85 87 84 84 85
73 75 76 76 76 79 76 74 75 75 75 86 84 83 86 72 71 79 85 92 80 75 92 88 78 71 80 80 77 74 75 81 86 88 94 89 94 86 89 87 90 83 81 84 82 77 79 79 87 84 84 81 81 85
75 76 77 76 78 79 82 78 77 80 80 89 84 85 82 76 68 67 72 82 79 79 90 88 89 80 76 81 83 84 87 89 89 86 94 93 86 80 85 85 66 73 81 72 73 87 85 90 87 82 82 82 83 83
76 77 78 78 81 80 80 86 91 90 85 86 87 82 75 72 84 70 72 78 74 80 88 95 96 84 79 84 91 87 88 94 88 93 88 86 89 87 83 71 60 85 88 93 89 87 90 88 88 84 83 81 80 85
75 79 79 79 80 84 79 90 90 88 86 85 80 77 74 72 72 78 86 76 74 80 85 98 97 92 81 88 83 95 88 87 93 95 93 84 89 92 91 77 82 90 89 88 86 81 76 84 82 83 83 82 80 79
78 81 80 81 79 81 81 88 88 89 84 80 77 71 76 79 74 81 70 72 84 70 93 95 96 96 86 94 93 89 91 91 93 93 94 88 90 90 63 71 87 93 86 81 82 81 82 79 78 77 75 73 76 72
80 83 81 82 81 80 83 88 88 84 81 74 77 72 85 89 80 77 73 64 84 90 93 96 96 98 91 93 95 90 90 94 95 94 92 93 93 78 80 79 81 89 83 84 77 83 81 84 65 68 64 67 75 78
81 84 83 85 85 83 92 86 84 80 72 86 89 95 96 82 81 76 88 75 81 82 92 96 95 98 90 94 96 89 97 97 96 91 95 96 95 88 81 83 85 86 85 79 67 58 61 68 65 70 70 71 73 77
83 87 87 87 86 88 91 87 80 85 88 82 87 88 86 81 87 64 83 87 81 71 97 95 96 93 96 90 91 89 95 93 95 94 93 97 87 81 86 86 85 82 78 74 73 71 73 64 72 76 80 81 81 79
85 87 88 86 85 82 91 88 76 77 72 79 80 81 80 81 59 59 54 78 95 97 98 99 99 96 94 86 91 90 96 95 82 89 96 91 80 81 86 83 82 86 78 67 66 65 65 70 73 79 81 82 85 88
87 88 88 85 85 81 90 87 80 75 78 87 80 66 74 78 78 74 74 89 94 97 95 97 99 92 90 93 89 92 79 79 95 100 88 92 82 81 87 80 78 77 71 83 84 83 84 87 87 88 85 84 86 88
88 89 88 86 85 83 87 87 77 78 90 82 80 63 86 82 93 96 98 99 98 86 93 94 94 84 98 96 86 85 92 100 91 77 87 91 77 85 85 75 71 68 70 72 75 83 88 89 91 86 84 84 89 88
88 88 91 85 84 82 86 89 76 80 94 88 94 87 91 98 98 100 100 100 99 92 88 90 91 88 94 91 92 90 77 73 74 93 93 92 84 85 79 72 70 72 78 77 76 75 74 78 82 86 87 88 87 87
89 94 82 81 86 85 85 88 90 90 87 91 94 95 96 98 97 98 94 92 92 82 80 92 61 66 93 90 79 87 80 79 88 92 96 91 82 81 76 71 74 76 78 79 78 75 83 80 94 92 87 74 87 88
92 90 86 92 90 83 94 95 91 92 96 98 97 98 90 94 96 95 96 95 87 90 89 70 90 86 75 62 80 86 93 96 96 97 97 83 76 77 75 76 72 72 74 90 92 92 94 91 91 86 89 91 94 95
86 87 93 84 85 95 100 98 94 95 97 99 99 99 95 89 94 95 93 92 92 86 84 90 68 79 71 82 84 94 97 96 89 93 89 82 80 77 85 86 90 90 91 91 92 91 90 89 92 92 95 96 97 95
82 91 85 79 74 91 97 98 94 95 99 96 97 100 99 98 96 96 95 92 89 91 67 61 49 47 51 65 90 90 93 90 83 81 74 74 77 86 88 92 94 94 96 95 91 75 92 92 91 92 96 96 96 96
83 91 81 77 97 95 96 97 98 96 98 98 99 95 96 97 97 96 95 96 89 87 75 83 54 76 82 82 84 84 89 78 74 67 64 83 69 93 94 96 96 85 84 82 88 88 90 95 95 96 98 96 95 96
96 88 99 95 96 97 94 92 94 96 96 97 96 92 93 90 91 92 98 89 90 85 87 92 94 93 85 81 83 84 85 79 79 80 74 72 71 88 90 95 94 94 96 95 94 95 97 96 94 93 95 86 82 84
90 95 99 99 96 92 98 94 95 97 90 95 95 90 96 96 96 96 86 91 89 96 97 98 97 97 92 97 96 94 92 88 83 81 82 77 76 95 97 94 94 96 96 96 98 99 99 84 82 83 85 88 86 86
87 99 98 97 91 97 90 96 89 94 94 92 88 92 94 96 96 91 72 89 88 98 99 97 94 95 95 92 94 94 95 96 95 95 86 80 92 73 83 90 90 95 98 99 98 98 97 90 88 89 89 95 95 95
95 98 97 96 96 93 95 100 97 93 91 91 88 96 95 97 88 82 70 84 97 99 98 97 97 96 90 97 97 96 96 95 93 89 93 96 94 96 95 96 94 99 98 99 100 99 98 97 97 97 96 97 96 92
96 97 97 92 95 82 90 86 89 88 91 93 92 95 97 92 68 57 71 81 89 94 94 88 84 91 92 94 88 91 90 97 92 91 94 97 96 95 97 98 100 96 99 100 99 99 98 96 97 98 96 94 94 96
96 96 88 76 76 79 84 82 79 90 90 84 93 97 90 66 60 68 82 91 89 95 90 90 87 81 75 93 96 97 97 96 93 93 96 98 98 98 96 96 95 94 98 99 99 98 98 96 96 95 95 95 98 98
88 83 87 95 91 96 86 91 91 94 92 86 81 87 72 69 70 83 89 94 95 96 96 96 96 96 88 94 93 95 99 100 99 98 97 96 98 99 98 98 98 88 97 100 92 96 97 98 97 97 99 99 96 94
95 86 86 96 94 93 96 93 90 94 82 90 86 87 84 89 93 94 95 98 98 85 85 90 98 98 96 97 97 98 92 90 79 75 77 90 96 94 99 98 99 99 100 99 92 88 92 94 98 99 100 98 97 96
98 94 91 95 94 94 95 95 98 97 91 88 86 95 94 94 94 96 97 97 93 80 87 82 92 84 86 81 92 93 99 99 96 87 90 91 90 96 99 99 100 100 100 100 100 99 89 97 96 98 96 96 95 97
90 92 93 93 96 96 96 96 95 82 93 94 92 91 87 91 94 97 96 97 96 93 88 92 96 96 84 88 87 89 88 98 100 98 98 98 99 99 99 100 100 100 100 100 100 100 100 100 100 100 99 99 98 99
94 96 93 96 98 97 97 97 97 96 95 92 89 95 96 90 84 94 98 96 94 88 81 82 83 88 93 97 97 98 74 91 97 98 99 100 99 98 98 99 100 100 100 100 100 100 100 100 100 100 100 100 99 98
96 96 96 95 97 97 96 96 97 97 96 92 88 88 87 81 72 85 99 100 91 88 86 88 94 83 88 90 93 96 91 97 96 92 91 89 86 83 98 100 100 100 100 100 100 100 100 100 100 100 99 99 99 98
Wind_Speed
26 26 28 27 26 24 25 21 18 14 14 17 6 19 18 16 12 5 0 2 3 5 3 4 5 4 3 3 5 3 4 3 3 4 2 2 2 3 2 2 3 4 4 2 2 1 6 4 1 4 2 2 3 3
26 27 26 26 24 24 23 18 16 12 16 21 13 19 19 16 8 3 3 2 3 7 4 1 3 3 3 2 5 3 3 2 3 5 1 2 1 1 3 2 1 2 5 4 7 5 2 1 1 1 2 4 3 3
25 27 26 24 23 23 19 16 10 10 13 17 16 15 13 15 9 4 2 2 4 5 3 4 5 6 4 3 2 5 1 3 2 1 4 2 2 3 3 5 2 2 3 2 2 2 3 2 1 2 2 3 3 4
24 25 25 24 23 21 16 11 8 8 12 5 18 18 16 15 11 6 3 1 4 4 4 2 3 4 8 5 1 1 4 4 6 3 3 2 2 1 2 1 2 3 3 4 4 4 3 6 5 5 4 5 4 4
23 23 23 21 21 18 11 8 10 10 7 11 17 14 18 14 12 7 3 1 1 5 5 1 3 5 5 7 9 8 5 4 3 4 4 1 1 2 1 1 3 4 6 5 5 4 3 3 7 6 6 5 4 2
22 21 21 19 19 13 6 12 17 19 13 9 11 12 16 13 7 5 4 2 1 3 6 3 2 5 5 7 9 9 5 4 4 4 2 1 1 2 2 3 3 3 3 4 3 3 1 1 5 4 3 2 1 3
20 20 18 18 16 4 12 21 6 16 15 15 17 14 13 10 5 4 3 3 1 3 5 4 3 4 3 4 3 4 4 3 3 2 2 2 1 3 3 5 4 6 4 2 4 6 2 3 3 5 1 0 2 3
17 18 15 14 9 4 8 7 22 23 20 19 19 17 17 18 11 4 3 2 3 5 5 5 1 3 3 2 2 3 3 3 5 2 1 1 0 1 4 6 3 4 4 3 5 0 1 4 5 3 1 2 3 6
17 16 12 10 4 5 7 15 19 20 22 20 17 14 6 6 3 2 1 6 2 4 5 3 5 4 2 1 1 2 2 3 1 2 0 1 1 5 6 5 7 7 6 6 4 4 4 2 3 1 3 4 5 7
16 13 10 7 6 7 7 18 20 20 19 13 5 4 3 1 3 4 5 3 5 4 4 3 0 2 3 0 1 2 2 1 1 1 1 2 5 4 3 3 5 8 5 8 5 1 2 2 4 3 5 5 5 6
15 13 10 7 11 9 18 19 19 16 6 3 3 3 1 4 3 4 2 3 1 2 1 3 2 4 2 3 3 0 3 0 3 4 2 3 5 4 2 3 4 6 6 6 3 3 3 3 3 4 7 6 6 6
14 11 10 12 15 14 21 20 21 4 3 4 6 5 3 4 4 5 2 3 2 5 2 4 4 3 2 2 4 0 3 3 2 1 1 4 6 2 4 4 4 6 6 5 3 3 2 4 4 6 6 6 6 6
15 12 13 17 19 18 21 23 10 17 9 3 5 5 3 3 4 6 6 5 3 6 5 4 3 4 2 2 3 3 5 2 2 1 5 7 3 2 5 4 4 2 2 3 3 2 3 4 4 3 6 5 6 7
15 15 17 20 21 20 21 24 17 7 4 2 5 3 6 3 7 7 6 4 2 4 9 4 4 3 3 4 3 6 2 3 2 2 7 4 5 4 6 3 5 6 5 3 3 3 4 4 5 4 5 6 6 8
16 18 20 22 22 22 16 23 11 4 2 3 4 6 7 3 1 2 2 2 1 7 5 4 3 3 2 5 1 5 3 3 6 7 5 4 3 5 6 5 5 5 4 4 3 3 5 5 4 7 6 6 7 9
17 17 12 22 23 20 19 17 3 3 2 3 2 2 2 0 2 1 1 2 2 4 2 3 4 4 2 5 4 6 7 7 6 5 4 2 2 4 4 5 4 3 3 4 4 5 6 6 6 6 8 8 9 7
23 5 18 20 20 27 25 5 3 3 4 2 3 2 3 1 3 3 4 4 4 4 3 3 5 5 4 4 1 4 7 5 4 3 2 3 3 4 4 4 3 3 4 5 4 5 5 5 3 5 8 9 6 6
5 8 16 21 25 25 4 1 4 3 5 3 3 3 2 1 2 3 3 3 5 3 3 5 7 4 6 6 4 5 3 1 2 1 1 2 3 4 4 3 1 2 5 4 3 4 3 5 6 7 6 7 7 5
10 12 26 35 19 8 5 3 2 5 4 2 2 1 2 1 1 3 3 3 1 2 5 2 6 4 5 4 4 3 2 3 4 3 2 2 4 3 2 1 1 2 3 3 3 3 4 6 5 5 5 4 5 6
24 28 33 28 13 5 6 1 1 3 4 3 3 2 3 1 1 3 3 2 2 2 2 2 4 4 5 4 3 4 3 4 5 3 1 1 1 2 2 2 1 1 2 3 3 5 3 4 2 4 4 5 5 7
20 19 27 13 5 5 4 3 1 3 3 3 2 3 2 2 3 2 0 1 3 3 2 4 2 1 2 4 3 3 5 5 4 4 4 2 2 2 0 0 1 1 1 3 4 5 6 4 5 4 4 5 5 5
7 23 5 4 4 4 3 2 3 3 3 2 3 3 3 2 2 2 1 3 3 4 3 3 3 3 4 4 3 3 6 6 5 5 7 6 3 1 1 1 1 2 2 2 2 3 4 4 4 4 5 6 8 6
19 5 4 3 5 4 2 2 2 1 5 4 3 4 0 1 3 1 0 3 3 3 2 2 3 1 5 2 3 4 4 5 5 4 3 3 2 2 2 1 2 1 3 2 1 1 2 9 8 7 6 6 6 6
12 5 5 5 4 5 5 3 1 3 3 3 4 3 2 3 1 3 3 3 3 2 2 4 4 5 4 3 2 2 2 3 4 2 1 3 1 0 1 1 1 1 1 2 2 2 3 4 9 6 5 5 6 7
8 5 6 4 2 7 5 5 3 1 4 3 5 2 3 2 3 2 5 4 2 4 3 3 1 2 4 2 1 0 1 3 4 3 1 2 2 2 3 2 3 3 1 3 2 3 4 3 4 4 6 6 8 9
5 3 4 5 4 6 8 7 8 6 6 4 3 3 2 3 4 7 6 6 5 6 8 10 8 4 1 2 5 3 4 3 4 4 2 3 3 3 2 2 2 3 1 1 1 3 5 5 5 7 7 8 14 12
6 6 3 0 5 6 5 3 2 3 5 7 6 6 4 5 6 5 1 2 4 4 5 5 5 4 7 4 3 3 4 4 3 3 3 3 2 2 4 3 3 3 2 1 2 3 5 6 7 7 7 6 4 5
4 4 9 5 4 1 6 4 4 4 4 4 6 5 10 10 6 3 2 1 3 4 7 5 3 3 5 4 6 7 5 4 6 6 5 4 3 2 3 1 1 4 1 3 4 3 4 5 5 5 5 6 7 5
3 3 5 5 5 5 3 3 4 2 2 4 4 4 4 1 1 1 1 2 2 7 9 8 2 3 7 6 5 3 6 6 6 4 2 3 3 3 2 2 1 1 1 2 6 6 5 2 3 2 2 3 4 5
2 1 6 4 5 3 0 1 1 1 2 2 2 3 2 2 1 1 2 3 3 6 5 7 7 6 7 7 5 3 1 2 2 5 5 4 5 3 2 1 2 2 2 1 2 3 7 4 6 4 6 6 5 6
2 3 6 5 4 1 1 1 0 3 2 3 2 2 2 3 2 2 2 1 3 4 8 7 3 1 7 6 5 5 1 2 2 3 3 3 3 3 2 3 2 2 1 0 2 2 3 3 3 4 6 8 9 9
3 3 5 6 3 0 1 2 3 2 2 3 4 3 3 3 2 2 3 3 4 4 6 8 7 6 4 3 3 2 6 7 5 4 6 4 3 4 3 2 2 2 2 2 2 1 2 2 3 4 5 7 8 8
3 3 4 6 4 3 2 3 2 3 3 2 2 1 1 1 4 4 0 1 3 4 7 5 3 6 7 7 6 5 7 4 8 9 8 6 6 3 3 3 3 3 3 2 1 1 3 3 3 4 6 7 8 8
Wind_Direction
310 313 316 320 321 323 322 321 326 319 332 337 319 148 126 105 74 58 129 2 113 95 16 350 2 49 48 75 126 197 75 360 51 69 113 175 133 229 84 181 185 170 131 190 95 110 292 6 102 163 212 33 128 120
310 313 317 318 321 324 324 323 318 327 346 339 168 156 160 121 116 73 61 8 19 76 131 0 72 64 28 13 124 35 149 124 161 92 73 107 126 82 155 240 29 215 178 188 176 213 226 288 156 196 162 147 168 152
308 312 316 320 320 325 319 320 316 335 340 330 158 148 157 156 132 85 103 28 51 87 48 41 352 331 20 6 265 115 280 149 73 137 147 146 114 131 170 241 188 227 168 175 68 202 223 182 146 162 139 143 152 169
308 311 316 319 321 324 317 309 314 329 331 290 140 138 136 130 128 110 90 303 79 99 97 358 330 15 321 345 68 113 130 75 100 65 85 99 117 143 216 243 202 203 134 158 269 257 280 239 220 188 162 163 167 181
306 311 315 320 322 318 313 305 299 290 296 172 146 147 151 132 109 95 96 33 134 117 131 148 308 353 351 22 50 51 64 74 65 53 58 115 90 100 1 26 254 191 183 168 223 209 164 216 193 173 176 197 200 184
306 311 318 319 319 318 331 301 282 260 248 186 144 141 137 143 130 66 32 345 307 95 98 108 301 342 344 18 40 43 36 62 78 106 140 163 224 116 131 226 241 215 225 196 231 149 164 137 166 166 177 205 222 236
307 312 316 317 316 3 347 316 255 159 165 149 132 119 111 92 70 81 186 241 343 78 88 82 2 334 328 7 31 26 28 58 80 97 72 141 172 104 173 221 209 201 175 158 151 125 94 200 210 184 142 257 306 291
300 305 307 313 309 64 9 80 113 122 138 122 117 115 97 91 92 30 331 54 80 89 69 107 32 7 3 33 49 0 44 39 22 120 46 149 38 76 252 232 190 157 131 145 186 77 167 135 106 125 88 297 297 286
297 301 297 306 276 95 52 129 120 123 124 121 123 118 71 44 52 281 127 62 49 112 117 96 137 203 20 71 58 36 43 55 280 94 125 95 213 231 234 183 184 181 179 187 152 108 118 140 173 221 258 289 273 278
289 289 278 276 183 137 145 144 130 129 129 120 53 59 88 309 322 11 5 19 16 355 42 98 87 143 102 164 52 78 20 102 89 310 338 225 259 262 243 216 193 181 181 139 121 188 201 293 237 250 256 264 250 263
284 282 257 231 158 147 148 147 138 135 102 65 85 82 244 312 61 33 34 101 322 2 97 149 158 139 221 120 146 180 175 302 80 264 123 286 272 249 190 194 205 170 171 185 155 113 153 179 231 262 280 276 285 290
270 252 228 200 159 152 156 159 151 135 168 172 121 109 85 49 43 87 249 330 193 218 160 141 171 154 163 149 101 245 114 47 205 219 63 270 254 240 152 150 150 157 161 165 153 182 238 257 254 262 277 285 290 289
263 229 206 190 166 157 164 168 149 125 112 45 57 71 88 309 48 156 209 268 238 174 180 160 138 144 122 94 75 93 78 167 169 191 238 235 260 234 176 146 147 132 150 149 183 242 282 280 278 256 286 285 291 293
250 212 196 186 176 167 173 173 159 130 71 109 131 181 173 225 240 194 191 179 194 130 141 117 118 142 133 78 140 90 113 77 106 268 238 248 232 206 173 165 142 192 180 188 249 284 283 282 285 278 265 279 280 276
234 199 188 181 173 171 177 177 161 61 93 188 111 216 207 209 164 178 196 92 259 146 116 101 75 106 90 102 121 115 123 238 209 229 233 238 242 168 169 172 184 183 196 240 257 254 262 262 265 287 282 269 267 273
211 191 189 175 180 181 185 158 91 78 43 138 100 94 200 83 197 216 169 154 225 127 81 66 128 83 96 130 108 198 128 214 238 218 232 260 161 170 170 174 188 192 217 255 267 255 266 272 270 266 292 280 273 271
183 185 187 191 203 189 163 107 106 187 243 152 254 215 159 232 194 180 171 172 129 101 198 144 88 175 98 64 149 194 199 215 209 235 220 210 162 176 163 161 176 215 257 264 262 268 271 293 326 297 292 305 281 271
183 156 187 183 148 126 51 39 108 181 213 231 140 211 149 55 210 163 142 139 131 178 146 198 127 114 157 152 242 229 217 238 220 223 216 159 123 134 159 172 215 257 267 273 250 281 277 293 293 292 294 297 301 288
146 153 153 140 124 108 137 124 141 182 219 172 114 89 105 105 288 92 101 96 111 128 118 55 92 153 206 205 181 201 199 179 166 174 142 114 130 143 142 86 256 255 267 278 315 289 279 280 274 295 296 302 295 302
151 153 156 145 130 101 100 120 115 138 179 180 110 109 102 137 255 72 74 56 100 128 56 115 183 198 163 189 178 150 154 152 125 100 115 161 142 129 199 188 208 298 305 314 286 331 309 321 307 309 306 302 320 315
139 163 154 119 61 67 89 143 110 172 149 124 123 116 107 20 39 59 106 341 64 188 202 210 153 97 82 96 111 116 126 137 155 149 161 152 202 159 67 46 157 180 346 318 319 323 349 310 305 305 307 306 298 296
110 133 84 43 92 88 91 173 175 155 82 115 115 83 100 109 189 242 225 61 226 224 177 160 182 158 117 127 122 107 139 112 109 101 86 115 132 103 83 212 47 314 300 268 281 304 311 307 305 304 314 316 331 318
102 88 83 108 96 88 120 59 117 222 144 167 80 98 345 228 231 316 162 221 252 230 152 151 152 102 108 97 92 72 90 125 123 123 134 149 125 136 125 193 170 191 326 321 49 312 296 328 322 336 327 331 325 320
90 89 129 123 113 124 135 171 193 138 112 123 113 119 245 196 196 58 226 240 231 149 142 170 150 100 58 45 108 171 171 116 102 72 141 134 107 102 107 106 71 88 172 311 330 315 312 321 336 323 321 323 320 309
118 162 132 126 128 116 135 149 184 173 123 136 111 172 230 137 100 180 217 250 196 186 160 143 122 141 141 148 126 174 156 127 136 151 298 145 119 48 29 21 65 113 90 43 339 302 301 300 304 310 324 322 313 330
107 178 171 150 143 149 168 146 184 165 121 122 143 135 166 135 139 213 218 187 183 166 175 177 164 149 143 152 134 147 190 155 111 100 266 174 154 145 173 72 5 312 212 154 265 302 314 311 306 320 321 316 327 337
135 188 191 319 110 122 101 82 106 127 129 157 162 172 162 146 214 241 202 229 154 190 157 148 161 148 140 137 103 88 102 94 123 150 112 110 114 132 141 152 218 240 292 322 273 260 289 307 313 316 310 319 297 297
123 166 139 171 98 57 120 108 142 159 156 155 140 168 175 174 188 208 173 90 104 110 90 75 67 103 114 114 119 118 87 88 88 82 80 50 36 35 44 354 290 298 25 267 293 300 288 289 307 317 326 316 317 324
101 145 106 86 94 64 70 141 169 152 134 165 128 147 183 242 20 234 164 159 159 134 119 117 51 95 88 81 69 60 125 143 118 102 118 269 324 296 219 252 281 328 285 304 324 342 310 23 342 6 325 303 302 301
115 292 103 65 84 109 102 316 114 114 61 74 94 100 74 54 331 225 117 112 156 153 133 132 145 134 142 136 134 74 49 156 166 136 166 216 220 212 212 265 304 288 273 270 320 325 2 31 0 5 4 359 348 333
106 90 77 59 88 115 181 268 0 75 47 57 36 116 138 144 14 44 92 130 116 128 119 125 96 143 134 138 137 124 168 253 146 129 125 139 168 190 221 239 236 237 213 145 46 40 11 3 7 359 355 346 333 346
52 82 129 112 106 147 334 57 61 58 7 43 34 36 34 61 116 280 180 122 122 147 174 155 148 181 182 107 106 126 110 128 160 178 178 177 201 220 222 243 228 176 149 95 77 55 43 22 360 357 338 329 324 323
103 74 89 103 113 161 173 110 65 88 58 77 56 347 312 180 164 218 219 254 193 173 170 167 117 119 137 139 139 124 118 129 154 165 180 196 221 223 186 188 179 164 133 102 70 43 18 19 347 334 330 324 316 317